Regional Weather Roundup
Issued by NWS Northern Indiana

Home | Current Version | Previous Version | Text Only | Print | Product List | Glossary On
Versions: 1 2 3 4 5 6 7 8 9 10 11 12 13 14 15 16 17 18 19 20 21 22 23 24 25 26 27 28 29 30 31 32 33 34 35 36 37 38 39 40 41 42 43 44 45 46 47 48 49 50
997
ASUS43 KIWX 291810
RWRIWX

KIWX WEATHER ROUNDUP
NATIONAL WEATHER SERVICE NORTHERN INDIANA
200 PM EDT SAT APR 29 2017

NOTE: "FAIR" INDICATES FEW OR NO CLOUDS BELOW 12,000 FEET WITH NO
SIGNIFICANT WEATHER AND/OR OBSTRUCTIONS TO VISIBILITY.

* THESE STATIONS ARE NOT UNDER NWS QUALITY CONTROL. THEY ALSO MAY NOT
  REPORT WEATHER SUCH AS PRECIPITATION OR FOG.

INZ001>027-291900-
NORTHERN INDIANA

CITY           SKY/WX    TMP DP  RH WIND       PRES   REMARKS
GARY*          LGT RAIN  45  41  87 N12G23    30.18F
VALPARAISO     CLOUDY    47  44  90 N9        30.14F
6HR MIN TEMP:  47; 6HR MAX TEMP:  50; 6HR PCP:  0.01;

MICHIGAN CITY* LGT RAIN  45  45 100 N7        30.16F
LAPORTE*       RAIN      52  47  85 NE9G17    30.15F
6HR MIN TEMP:  48; 6HR MAX TEMP:  53;

KNOX*          CLOUDY    50  36  57 NE12      30.13F
SOUTH BEND     LGT RAIN  51  47  86 NE8       30.15F
6HR MIN TEMP:  48; 6HR MAX TEMP:  53; 6HR PCP:  0.02;

ELKHART*       CLOUDY    52  46  82 NE15      30.16F
GOSHEN         LGT RAIN  50  46  86 NE14      30.13F FOG
6HR MIN TEMP:  49; 6HR MAX TEMP:  52; 6HR PCP:  0.04;

MONTICELLO*    LGT RAIN  52  50  93 E9        30.09R
6HR MIN TEMP:  50; 6HR MAX TEMP:  52; 6HR PCP:  0.11;

LOGANSPORT*    CLOUDY    54  52  94 E10       30.09S
ROCHESTER*     LGT RAIN  54  50  87 E10       30.12R
WARSAW*        LGT RAIN  50  46  87 E12G18    30.12F
ANGOLA*        CLOUDY    48  46  93 E9        30.16F
FORT WAYNE     RAIN      51  49  92 NE17      30.11F FOG
6HR MIN TEMP:  51; 6HR MAX TEMP:  56; 6HR PCP:  0.17;

HUNTINGTON*    LGT RAIN N/A N/A N/A NE12G17   30.13F
                                      6HR PCP:  0.15;

PERU/GRISSOM   CLOUDY    55  55 100 NE13      30.10S
6HR MIN TEMP:  54; 6HR MAX TEMP:  55; 6HR PCP:  0.25;

MARION*        CLOUDY    57  55  94 NE10      30.10R FOG

$$
INZ028>050-291900-
CENTRAL INDIANA

CITY           SKY/WX    TMP DP  RH WIND       PRES   REMARKS
LAFAYETTE      CLOUDY    55  55 100 NE10      30.06F
6HR MIN TEMP:  50; 6HR MAX TEMP:  55; 6HR PCP:  0.39;

KOKOMO*        CLOUDY    57  55  93 NE9       30.10F
6HR MIN TEMP:  54; 6HR MAX TEMP:  57; 6HR PCP:  0.32;

MUNCIE*        CLOUDY    62  59  90 E12       30.06F
6HR MIN TEMP:  56; 6HR MAX TEMP:  62; 6HR PCP:  0.51;

INDIANAPOLIS   CLOUDY    66  64  93 SE3       30.03F
6HR MIN TEMP:  57; 6HR MAX TEMP:  66; 6HR PCP:  0.49;


$$
MIZ043>046-050>051-056>058-064>065-071>073-077>080-291900-
SOUTHWEST LOWER MICHIGAN

CITY           SKY/WX    TMP DP  RH WIND       PRES   REMARKS
BATTLE CREEK   CLOUDY    52  42  69 E8        30.20R
6HR MIN TEMP:  47; 6HR MAX TEMP:  53;

BENTON HARBOR  LGT RAIN  54  41  61 NE12      30.17S
6HR MIN TEMP:  47; 6HR MAX TEMP:  55; 6HR PCP: TRACE;

COLDWATER*     RAIN      49  46  88 E6        30.18S
6HR MIN TEMP:  47; 6HR MAX TEMP:  51;

HILLSDALE*     LGT RAIN  46  43  87 E9        30.18F
HOLLAND        CLOUDY    54  38  54 E9        30.20R
6HR MIN TEMP:  46; 6HR MAX TEMP:  54;

GRAND RAPIDS   CLOUDY    54  38  54 E10G18    30.21R
6HR MIN TEMP:  45; 6HR MAX TEMP:  55;

KALAMAZOO      CLOUDY    53  37  54 E8        30.19F
6HR MIN TEMP:  47; 6HR MAX TEMP:  54;

STURGIS*       CLOUDY    49  45  85 E10       30.16F
6HR MIN TEMP:  48; 6HR MAX TEMP:  52;

THREE RIVERS*  LGT RAIN  51  44  76 NE12      30.18F

$$
OHZ001>008-015>018-024>025-291900-
NORTHWEST OHIO

CITY           SKY/WX    TMP DP  RH WIND       PRES   REMARKS
WAUSEON*       CLOUDY    45  43  93 NE15      30.18F
DEFIANCE       LGT RAIN  46  43  89 NE18G25   30.12F
6HR MIN TEMP:  46; 6HR MAX TEMP:  54; 6HR PCP:  0.05;

FINDLAY        LGT RAIN  48  43  82 NE15      30.15R
6HR MIN TEMP:  48; 6HR MAX TEMP:  57; 6HR PCP:  0.19;

TOLEDO EXPRESS CLOUDY    44  44 100 NE14      30.19F
6HR MIN TEMP:  44; 6HR MAX TEMP:  55; 6HR PCP:  0.15;

TOLEDO METCALF CLOUDY    46  43  89 NE12G20   30.20F
6HR MIN TEMP:  45; 6HR MAX TEMP:  56; 6HR PCP:  0.01;

LIMA           LGT RAIN  49  48  97 NE15G21   30.11R
6HR MIN TEMP:  49; 6HR MAX TEMP:  56; 6HR PCP:  0.42;


$$
AND FOR LAKE MICHIGAN COASTAL AND OPEN LAKE BUOY OBSERVATIONS

STATION/POSITION TEMP    WIND        PRES    VSBY  WAVE
                 AIR SEA DIR/SP/G                  HT/PER
                 (F)     (DEG/KT/KT) (MB)    (MI)  (FT/S)
CALUMET HARBOR    42     350/ 14/ 22 1021.5F
MICHIGAN CITY     44      10/ 20/ 23   N/A
BURNS HARBOR      44      30/ 18/ 23 1021.7S
SOUTH LAKE BUOY   40 41   20/ 19/ 23 1023.2          5/ 6
4 MI NW BRIDGMAN  45 48   30/ 14/ 17 1022.8          4/ 5
MICHIGAN CITY     43 47                N/A           6/ 6

$$
&&




USA.gov is the U.S. government's official web portal to all federal, state and local government web resources and services.